{"data":{"norad_id":68532,"epoch":"2026-05-25T03:14:40.350336Z","epoch_age_seconds":57131,"freshness":"FRESH","line1":"1 68532U 26068AA  26145.13518924  .00025451  00000+0  76159-3 0  9994","line2":"2 68532  53.1585 133.1548 0001064  91.5360 268.5764 15.34410839  8669","mean_motion":15.34410839,"eccentricity":0.0001064,"inclination_deg":53.1585,"raan_deg":133.1548,"arg_perigee_deg":91.536,"mean_anomaly_deg":268.5764,"bstar":0.00076159,"rev_number":866,"period_min":93.847095145552,"perigee_km":461.94316263071,"apogee_km":463.39888657835,"semimajor_km":6840.8080246045,"source":"CELESTRAK","updated_at":"2026-05-25T13:38:21.958014Z"}}